Home   Weather   Metairie   Past weeks

Flag for USA Past Weather in Metairie, Louisiana, USA — Yesterday and Last 2 Weeks

Now
81 °F

Passing clouds.


Feels Like: 89 °F
Forecast: 80 / 90 °F
Wind: 6 mph from Southwest

Location: New Orleans International Airport

Current Time: Aug 19, 2017 at 2:34:04 am

Latest Report: Aug 19, 2017 at 1:53 am


Visibility: 10 mi

Pressure: 29.99 "Hg

Humidity: 91%

Dew Point: 78 °F

Location of MetairieLocation

Past Weather in Metairie — Graph

°F

Metairie Temperature Yesterday

Maximum temperature yesterday: 94 °F (at 2:53 pm)
Minimum temperature yesterday: 78 °F (at 2:53 am)
Average temperature yesterday: 85 °F

High & Low Weather Summary for the Past Weeks

 TemperatureHumidityPressure
High94 °F (Aug 18, 2:53 pm)100% (Aug 5, 2:53 am)30.15 "Hg (Aug 5, 2:53 am)
Low74 °F (Aug 15, 12:43 pm)47% (Aug 18, 6:53 pm)29.90 "Hg (Aug 14, 4:53 pm)
Average82 °F85%30.01 "Hg
* Reported Aug 4 12:53 am — Aug 19 12:53 am, Metairie. Weather by CustomWeather, © 2017

Note: Actual official high and low records may vary slightly from our data, if they occured in-between our weather recording intervals... More about our weather records

Advertising

Metairie Weather History for the Previous 24 Hours

Scroll right to see more
 ConditionsComfort  
Time TempWeatherWind HumidityBarometerVisibility
12:53 am
Sat, Aug 19
80 °FPassing clouds.5 mph94%30.01 "Hg10 mi
11:53 pm
Fri, Aug 18
81 °FPassing clouds.8 mph91%30.01 "Hg10 mi
10:53 pm82 °FPassing clouds.3 mph85%30.01 "Hg10 mi
9:53 pm82 °FPassing clouds.7 mph88%30.00 "Hg10 mi
8:53 pm84 °FPassing clouds.7 mph83%30.01 "Hg10 mi
7:53 pm86 °FPassing clouds.8 mph75%30.00 "Hg10 mi
6:53 pm93 °FScattered clouds.3 mph47%29.98 "Hg10 mi
5:53 pm94 °FPassing clouds.5 mph49%29.98 "Hg10 mi
4:53 pm94 °FPassing clouds.No wind51%29.98 "Hg10 mi
3:53 pm93 °FPassing clouds.6 mph50%29.99 "Hg10 mi
2:53 pm94 °FPassing clouds.5 mph52%30.01 "Hg10 mi
1:53 pm92 °FPassing clouds.10 mph58%30.03 "Hg10 mi
12:53 pm91 °FScattered clouds.7 mph64%30.05 "Hg10 mi
11:53 am91 °FScattered clouds.3 mph64%30.06 "Hg10 mi
10:53 am88 °FPassing clouds.6 mph73%30.07 "Hg10 mi
9:53 am86 °FScattered clouds.6 mph80%30.07 "Hg10 mi
8:53 am84 °FPassing clouds.8 mph83%30.06 "Hg10 mi
7:53 am82 °FPassing clouds.3 mph91%30.06 "Hg9 mi
6:53 am78 °FPassing clouds.No wind96%30.05 "Hg7 mi
5:53 am78 °FPassing clouds.No wind96%30.03 "Hg8 mi
4:53 am78 °FPassing clouds.3 mph96%30.02 "Hg9 mi
3:53 am78 °FPassing clouds.3 mph96%30.02 "Hg10 mi
2:53 am78 °FPassing clouds.3 mph96%30.03 "Hg9 mi
Weather by CustomWeather, © 2017

See weather overviewHow to use our weather pages